CAPE
1531 1874 2411 2363 2316 2220 2390 2494 2449 2961 2672 2540 2846 2942 2945 3016 3063 3210 3250 3234 3376 3408 3344 3287 3383 3350 3230 3390 3268 3157 3189 3216 3154 3005 2899 2898 2641 2540 2574 2249 2364 2077 2278 1908 2232 1875 2059 1744 1462 1696 1752 1762 1636 1569 1735 1576 1963 2246 2136 2219 2253 2194 1911 1708 1882 2001 1931 1872 2221 2031 1448 1585 1600 1938 2159 2458 2165 2364 2492 2221 1983 1837 1914 2511 2863
1558 1754 2329 2490 2384 2338 2623 2532 2778 2888 2887 2744 2775 2773 2806 2749 2873 2868 3033 3184 3337 3301 3208 3196 3233 3216 3135 3108 3048 2933 3092 2956 2850 2790 2874 2771 2794 2733 2568 2251 2259 2302 2045 1884 1988 2019 2314 2124 1899 1876 1886 1651 1824 1877 1771 1368 1732 2299 2498 2686 2506 2106 1634 1597 1988 2067 1874 1968 2054 2114 1906 1974 1961 2132 2289 2699 2083 2341 2324 1778 1568 1344 2246 2902 2876
1821 1520 2092 2256 2646 2604 2650 2619 2774 2907 2992 2880 2676 2662 2829 2793 2629 2617 2966 3098 3176 3153 3086 3132 2944 3072 3056 3112 2979 3068 2997 2800 2665 2849 2597 2530 2496 2464 2439 2367 2296 2276 1986 1927 2031 1695 1952 1979 1747 1580 1660 1771 1548 1704 1661 1755 1695 2000 2315 2542 2600 1998 1607 1726 2200 2342 2025 2159 2065 2390 2386 2234 2109 2018 2452 2829 2110 2262 1847 1581 1798 2477 2725 2838 2752
1360 1857 2022 2612 2513 2695 2711 2778 2798 2938 2930 2937 2907 2886 2763 2796 2666 2629 2797 2920 2822 3051 3045 2943 2995 3076 3048 2924 2917 2838 2715 2597 2587 2540 2518 2284 2214 2115 2088 1990 1946 1995 1958 2116 2070 2120 2050 1898 1750 1550 1487 1458 1384 1376 1530 1655 1820 2120 2088 2136 2038 2036 1731 1880 2044 1992 1939 1964 1918 2011 2225 1684 1595 1764 2476 2860 2210 2411 2323 1971 1869 2409 2774 2496 2778
1106 1654 2270 2402 2598 2819 2804 2773 2843 2936 2967 2866 2936 2961 2886 2786 2841 2784 2860 2754 2688 2934 3009 2975 2958 3037 2840 2686 2832 2996 2819 2546 2452 2394 2337 2184 1766 2138 1947 1891 2253 1976 1925 2113 2065 2093 2052 1915 1872 1808 1833 1708 1554 1274 1516 1702 2194 2107 2002 1915 2088 2023 1883 1814 1845 1929 1940 1792 1658 1815 1850 1936 2058 1990 2256 2626 1828 2442 2530 2105 2444 2717 2450 2407 2481
819 1594 2037 1950 2224 2768 2924 2927 2681 2730 2896 2954 3064 2911 2807 2618 2506 2792 2818 2835 2724 2846 3020 2958 2930 2905 2719 2776 2820 2780 2636 2466 2322 2158 2053 2008 1846 1687 1673 1702 1881 2073 2317 2180 2124 1960 1887 1919 1962 1862 1890 1814 1856 1727 1502 1484 1710 1932 2046 2018 1792 1626 1369 1551 1537 1630 1734 1551 1542 1633 1652 1769 2336 2112 2086 2628 2595 2916 2396 1900 2196 2435 2313 2458 2252
1197 982 1792 1960 2094 2768 3037 3004 2780 2851 2920 2988 2797 3011 2729 2573 2888 2849 2898 2589 2606 2435 2545 2514 2561 2646 2701 2767 2714 2634 2650 2647 2392 2327 2129 2114 1909 1606 1669 2121 1879 1946 1918 1925 2132 1914 2038 2003 2128 1884 1878 1852 1795 1930 1838 1651 1803 2023 1930 1826 1675 1264 1098 1331 1329 1535 1526 1621 1668 1617 1786 1614 1905 2048 2106 2446 3082 2866 2136 1924 1989 2300 2292 2468 2493
1332 1608 1618 1842 2043 3026 3192 3198 3077 2970 3128 2958 2948 2994 2706 2426 2519 2568 2727 2675 2144 1971 2259 2488 2500 2578 2390 2564 2488 2282 2382 2392 2422 2351 2242 2256 2238 1914 1730 1882 2144 1656 1815 1812 1641 1648 1545 1922 1837 1906 1800 2083 2065 1707 1672 1696 1527 1392 1368 1663 1570 1281 1132 1223 1215 1266 1634 1538 2001 1961 2185 2072 1982 2032 2126 2380 2988 2716 2142 1981 2134 2321 2375 2564 2430
1513 1612 1660 1336 2218 2954 3207 3114 3103 3060 2845 3080 3126 3119 2648 2365 2239 2386 2712 2796 1971 1910 1740 2499 2625 2503 2600 2409 2384 2286 2412 2120 2282 2254 2100 2072 1948 2287 1878 1983 1906 1880 1949 1830 1836 1815 1685 1656 1832 1909 1666 1750 1752 1596 1603 1416 1394 1357 1510 1420 1119 1008 946 767 1004 968 1551 1764 2313 2217 2441 2653 2409 2407 2188 2338 2694 2586 2168 1981 1938 2183 2341 2082 2693
1666 1842 1590 1937 2391 3437 3142 3156 3154 2994 2973 3118 3109 3137 2965 2408 2423 2411 2654 2756 1959 1846 2212 2505 2477 2530 2510 2391 2284 2440 2672 2578 2518 2352 2370 2142 2241 2235 2165 1900 2179 1849 2154 1820 2288 2220 1603 1694 1558 1782 1860 1716 1833 1774 1385 1851 1527 1394 1218 1183 858 1046 935 733 943 1204 1262 1694 2066 2063 2371 2420 2732 2222 2156 2345 2433 3112 2228 1977 1928 2001 1960 2411 2555
1803 1830 1882 2021 2520 3181 3145 3132 3065 2945 2977 3123 3124 2948 2965 2599 2480 2649 2771 2733 2022 1859 1669 2296 2379 2526 2492 2522 2515 2637 2352 2418 2004 2394 2047 2111 2119 2051 2187 2241 2107 1980 1877 1966 2164 2081 2194 1602 1526 1375 1820 1827 1937 1832 1690 1333 1405 1498 1219 1100 1191 1090 922 1186 1071 1172 1471 1718 1921 2018 2212 2020 2375 2056 2008 2339 2514 2888 2468 1964 1841 1906 2097 2637 2649
1981 1952 1945 1787 2971 2981 3141 3172 2996 2944 2962 3050 3230 2881 2832 2749 2562 2666 2890 2763 2049 1886 2015 2248 2420 2448 2468 2502 2464 2556 2499 2248 2300 1832 1933 1932 2293 2312 2212 2145 2004 1811 1800 1815 2108 2236 2091 1639 1521 1348 1380 1816 1399 1410 1255 1204 1213 1172 1100 1044 892 1056 1200 1214 1083 1131 1294 1502 1680 2141 2205 2104 2350 2135 2011 2316 2480 2903 2634 1924 1891 1862 2229 2602 2888
1915 1863 1863 2337 2737 3104 3111 3277 3191 3091 3106 3096 3180 3077 2724 2762 2610 2835 2790 2600 2226 1866 2016 2316 2338 2316 2323 2224 2267 2306 2438 2264 2295 2288 1681 1762 2018 2081 2035 2031 1914 1847 1602 1498 1898 1743 1730 1864 1849 1710 1314 1434 1735 1647 1533 1529 1137 1014 1042 663 870 966 1314 1251 1199 1171 1349 1815 1345 1996 2128 2259 2100 1957 1931 2072 2527 2702 3014 2152 1986 2094 2359 3006 2441
1639 1682 1809 2122 2426 2987 3096 3214 3264 3034 3031 2956 3034 2862 2624 2551 2588 2817 2716 2450 2301 1841 2049 2144 2151 2032 2104 2116 1910 1989 2097 2251 2181 1886 2708 2591 2410 1852 2020 2096 2011 1820 1709 1531 1624 1856 1775 1766 1688 1739 1648 1554 1568 1325 1470 1188 807 1025 649 611 793 808 1169 1448 1474 1474 1423 1548 1403 1873 2154 2029 2477 1604 1809 2210 2340 2463 2735 2859 2049 2190 2832 3024 2738
1571 1704 2032 1939 2147 2727 3155 3101 3332 3234 3027 3040 3138 2799 2732 2560 2635 2572 2476 2271 2353 1912 1793 1942 1924 2003 1986 2034 2010 1964 2019 2128 2158 1820 1941 1688 1550 1753 1844 1857 1989 1958 1862 1714 1535 1834 1892 1830 1684 1703 1470 1294 970 1167 1104 1184 960 948 720 726 858 781 1003 1680 1379 1598 1589 1931 1551 1776 2004 2364 1694 1614 1908 2172 2032 2247 2519 3062 2253 2324 2590 2388 2816
1511 1794 1877 1992 2336 2707 3012 3290 3358 3097 2994 2974 2830 2710 2629 2687 2529 2527 2368 2251 2224 2024 1644 1892 1887 1924 2008 1970 1973 1948 1970 2044 1930 1836 1605 1295 1197 1185 1537 1736 1787 1716 1742 1751 1929 2052 1983 1932 1747 1665 1470 1273 1201 1263 1210 1321 1252 1052 954 956 800 884 764 824 1292 1558 2187 2275 2108 2043 2416 2213 1497 1806 1895 1822 2111 2139 2331 2801 2316 2431 2581 2745 2920
1602 1866 1796 2156 2231 2430 2445 3271 2971 3144 3070 3090 2804 2615 2500 2538 2520 2451 2235 2169 1956 1966 1722 1911 1788 1923 1856 1898 1914 1863 2026 1978 1781 1374 1425 1216 1232 1270 1076 1285 1858 1828 1689 1825 1459 2116 1800 1701 1568 1466 1438 1440 1264 1223 1100 1005 926 990 914 1203 1097 876 954 1060 1296 1253 2004 2200 2294 2268 2310 1794 1367 1681 2017 2170 1998 1973 2130 2346 2654 2574 2487 2743 2923
1762 1941 1946 2196 2362 2443 2423 2480 2878 3169 2954 2939 2639 2407 2505 2461 2441 2377 2332 2082 1949 1841 1784 1918 1661 1948 1979 1954 1699 1925 1990 1615 1990 1885 1654 1455 1415 1053 1162 1334 1591 1752 1847 1866 1630 1724 1733 1588 1571 1546 1458 1427 1399 1044 1046 888 786 872 831 1011 1122 1444 808 867 852 1512 1628 1692 1658 2108 2070 1694 1414 1391 1762 1981 1993 1888 1974 2381 2375 2640 2525 2916 2996
1818 1658 1802 2284 2298 2498 2340 2583 2997 2979 2913 3023 2708 2446 2486 2324 2401 2343 2219 2003 1812 1508 1734 1958 2208 1993 1999 2070 2034 2031 2109 1942 2382 1898 1690 1708 1371 1317 910 1009 1144 1273 1364 1624 1625 1524 1694 1336 1263 1386 1481 1402 1362 1228 1026 675 806 900 948 1064 1103 1294 1253 1118 790 1430 1964 2046 1933 1948 2006 1503 1678 1772 1935 2063 1925 2140 2066 2674 2272 2583 2554 2663 3023
1890 1884 2030 2204 2353 2407 2569 2552 2810 2798 2752 2541 2675 2562 2705 2324 2332 2281 2148 1897 1668 1650 1609 1542 1866 1964 1868 1900 2120 2202 2277 2034 2470 2188 1862 1960 1858 1436 1075 1190 1101 1251 1245 1351 1330 1548 1330 1244 1203 1276 1486 1434 1274 1399 900 820 671 840 835 960 1177 1391 2020 1782 968 1549 2190 2167 2018 1592 1497 1492 1804 1811 1982 2012 1917 2248 2463 2922 1994 2325 2597 2916 2898
1816 1665 1957 2270 2550 2446 2628 2530 2819 2791 2306 2623 2489 2445 2502 2371 2312 2262 1789 1806 1758 1790 1540 1623 1709 2002 1876 1922 1946 1944 2776 2901 2220 2206 1439 1526 1443 1857 1618 1878 1627 1557 1425 1415 1496 1207 1267 1125 1292 1264 1227 1329 1468 1473 1198 859 804 766 929 1077 1227 2113 2118 2043 2026 1188 2030 2121 2201 2012 1526 1592 1638 1659 1698 2100 2237 2205 2663 2790 2159 2317 2578 2991 2906
1649 1546 1731 1912 2304 2330 2613 2800 2602 2621 2485 2204 2249 2430 2518 2201 2199 2350 2193 2254 2064 1886 2401 2401 1932 2259 1871 1949 2288 2116 2069 2848 2827 2015 2866 2060 1857 1770 1916 1663 1721 1693 1770 1656 1566 1410 1007 1155 1085 1164 1374 1376 1236 1971 1250 993 916 579 816 1126 1620 2219 2112 2081 1970 1056 2012 2181 2376 1999 2067 1606 1526 1684 1683 1828 2186 2478 2472 2018 2169 2382 2598 2982 3026
1681 1600 1506 1697 2095 2415 2399 2595 2563 2466 2353 2382 1796 2225 2338 2612 2791 2470 2406 1738 1932 2083 2288 2298 2441 2330 2337 2082 2107 1849 1828 2402 2462 2570 2373 1984 1548 2381 2433 2294 1801 1627 1737 1740 1855 1786 1238 1024 1130 1312 1338 1293 2256 2150 1568 1117 1220 1138 826 1325 1392 1474 1658 1908 1850 1791 1072 1504 2230 2019 1850 1554 1604 1717 1714 1821 1852 2164 1900 1978 2110 2364 2687 2956 2852
1569 1604 1609 1647 1865 2190 2472 2308 2278 2434 2079 1747 1861 1752 1994 2672 2150 2025 1840 1891 2030 1946 2143 2190 2267 2326 2022 2009 1483 1588 1824 2114 1957 2242 2868 3121 2758 2961 2884 2462 2641 2344 2369 2147 1860 1660 1390 1189 1213 1324 1477 1990 2093 1932 1852 1944 1355 1011 707 1249 1552 1422 1691 1520 1605 1574 1715 1521 2427 1974 2101 1863 1705 1532 1530 1636 1772 1880 1995 1987 1974 2155 2718 2844 2905
1159 1418 1530 1620 1866 2220 2145 2237 2064 2256 2154 1798 1887 1649 1873 2024 1778 1853 1817 1600 1521 1527 1558 1972 1959 2240 2245 2074 1411 1361 1313 1612 1772 2019 2282 2093 2156 2261 2630 2217 1944 2018 2810 1790 1502 1746 1802 2178 2183 2002 2717 2417 2369 2214 2187 1922 2317 1720 1594 1411 1426 1402 1474 1648 1616 1511 1639 1844 2216 1907 1778 1875 1764 1784 1496 1544 1665 1788 2156 1887 1970 2089 2795 2830 2671
1003 1238 1474 1685 1819 2069 2162 2104 1929 1979 1948 1922 1849 1516 1909 1776 1752 1778 1903 1671 1493 1396 1216 1227 1415 2135 1717 1446 1654 1223 1008 876 1244 1726 1989 1844 1734 1872 1853 2404 3005 3118 2579 2078 1640 2220 1830 2302 3156 2790 2698 2410 2263 2277 2342 2206 2378 1810 1570 1836 1890 1746 1601 1739 1597 1823 1665 1727 2223 2050 1869 1897 1826 1996 1523 1698 1762 1744 1742 2190 2242 2302 2537 2835 2628
1127 1106 1290 1501 1584 1899 2246 2312 2126 1920 1935 1995 1910 2084 2143 1914 1811 1726 1668 1425 1434 1218 1008 888 998 1971 2058 1380 912 691 596 433 424 954 1444 1279 1400 1459 1605 1968 2441 2411 3036 2904 2418 2247 1926 2567 2789 2905 2649 2682 2550 2240 2481 2575 2307 2172 1992 1988 2200 2040 1791 1679 2045 1786 1482 1719 2398 2357 2136 2060 2226 2040 1858 1840 2024 2054 1777 2182 2201 2297 2194 2196 2272
1287 1009 1020 1233 1657 1586 2001 2416 2611 2330 2299 2244 2518 2624 2526 2237 1918 1918 1836 1476 1581 1357 928 888 1169 1373 2292 1478 1476 459 272 244 282 388 382 573 930 1210 1396 1549 1513 1407 2160 2984 2346 2844 2497 3173 3508 3200 2854 2990 2789 2501 2357 2419 2078 2044 2303 2241 2259 1886 1892 1912 1905 2029 1678 1361 1924 2102 2394 2086 2162 2122 1824 1714 2016 2095 1958 2022 2113 2191 2293 2010 1936
1139 1094 952 1023 1280 1352 1702 1941 1989 2669 2364 2213 2316 2647 2483 2358 2017 1809 1776 1702 1876 1236 1046 1482 1178 1212 1328 1919 1842 532 159 75 84 133 272 296 357 602 1350 1454 1495 1400 1254 2494 2775 2475 3161 3170 3537 3446 3196 3086 3022 2742 2609 2200 1913 2076 2097 2294 2390 2300 2170 2015 2029 2290 2091 1659 1304 1882 2324 2366 2483 2377 2255 2050 2166 2166 2052 1989 2022 2263 2191 2199 1706
1146 1150 1238 991 1010 1059 1141 1350 1616 2170 2356 2327 2574 3004 2954 2510 2240 1846 1664 1784 1745 1556 1900 1142 1033 1115 776 1310 1838 1253 280 76 38 139 168 238 435 995 1598 1573 1548 1323 1026 1393 2635 2780 2265 3030 3204 3472 3343 3252 3004 2894 2628 2309 2128 2069 2074 2209 2410 2208 2114 2111 1986 2078 2195 1938 1441 1559 1999 2216 2546 2505 2535 2292 2146 2299 2137 2022 2258 2298 1914 1688 1716
1489 1265 1191 1245 1130 971 836 938 1236 2003 2119 2157 2813 3104 2698 2376 2107 1841 1726 1698 1521 1486 1634 1381 983 890 879 2030 2682 2245 1036 86 20 216 362 429 998 1734 1635 1556 1489 1316 1178 1114 1980 2318 2592 2652 2683 2947 3279 3209 3120 3035 2954 2518 2437 2219 2093 2306 2204 2007 2074 2152 2114 1980 1934 1719 1336 1522 2178 2138 2188 2370 2512 2609 2377 2312 2339 2214 2132 2067 2014 1785 1770
1636 1492 1399 1250 965 748 803 1145 1400 1822 2021 1844 2414 2363 2318 2208 2179 1835 1688 1563 1850 1637 1336 1182 1241 1060 1261 1854 2072 1548 1256 548 364 454 347 736 1598 1621 1594 1550 1334 1292 1269 1234 1529 2512 2688 2900 2421 2490 2804 3030 2837 3032 2831 2591 2466 2430 2423 2319 2257 2250 2357 2361 2238 2234 2116 1878 1502 1280 1473 1855 2026 2142 2356 2410 2575 2430 2396 2388 2160 2112 1940 1739 1812
1809 1741 1245 973 866 1251 1598 1572 1451 1791 1993 1653 1480 1702 1860 1772 1686 1642 1496 1733 1788 1672 1442 1297 1214 1295 1644 2083 2391 2456 2538 1249 858 1500 1752 1956 2132 2074 1819 1534 1396 1436 1174 1362 1282 1986 2465 3021 2594 2601 2564 2474 2435 2599 2882 2584 2503 2557 2438 2418 2522 2602 2399 2537 2514 2263 2104 1964 1866 1401 1292 1578 1745 2206 2291 2366 2429 2612 2591 2564 2398 2168 2105 1939 1950
1930 1669 1724 1584 1312 1711 1764 1955 1942 1937 1937 1772 1516 1541 1485 1486 1516 1642 2004 2005 1917 1841 1713 1707 1789 1708 2046 2341 2334 2269 2136 2161 2396 2644 2923 2655 2492 2210 2056 1731 1549 1801 1614 1326 1384 2186 2043 2208 2424 2281 2234 2043 2425 2397 2472 2581 2726 2736 2522 2397 2377 2450 2407 2423 2607 2512 2394 2199 1941 1777 1418 1430 1380 1615 1744 2310 2410 2541 2643 2615 2591 2406 2168 2083 2076
1615 1660 1740 2096 2196 2340 2259 2324 2242 2147 2183 2183 2184 2007 2092 1977 2183 2436 2477 2669 2609 2887 2874 2740 2509 2614 2869 2508 2641 2832 2838 2679 2776 3446 3200 2795 2028 1592 1216 1590 2001 2090 1713 1506 1716 1415 1674 1712 2143 2105 2623 2184 2201 2362 2281 2190 2660 2806 2861 2508 2338 2325 2362 2439 2479 2437 2481 2447 2068 1894 1728 1482 1474 1286 1423 1724 2329 2448 2624 2785 2702 2524 2341 2311 2175
1861 1855 1958 2096 2348 2256 2527 2615 2837 2659 2796 2885 2802 2652 2660 2715 2629 2733 2965 3648 3483 3236 3079 2859 2670 2670 2943 2989 2990 2863 2616 3395 3522 3754 3290 2919 2300 1979 2202 2446 2427 2311 1987 1770 1997 1795 1647 1842 1724 2057 1945 1726 2236 2372 2281 2283 2470 2729 2646 2653 2575 2407 2390 2230 2183 2334 2346 2511 2350 1959 1850 1766 1512 1533 1241 1266 1501 2160 2662 2808 2829 2748 2643 2492 2320
1908 1942 2325 2401 2416 2458 2347 2605 2986 3051 3000 3164 3627 3551 3270 3119 3248 2994 3124 3296 3021 2872 2833 2709 2590 2581 2633 2604 2944 2914 2852 2567 2563 3032 3016 2406 2038 1940 1782 1712 2187 2267 2038 1934 1725 1896 1937 1447 1950 2350 1513 1775 1911 2011 2255 2224 2248 2516 2448 2647 2631 2602 2472 2200 2112 2128 2388 2698 2658 2229 1815 1730 1618 1490 1581 1385 1299 1418 2740 2951 2846 2850 2811 2749 2743
1838 2031 2403 2792 2949 2871 2731 2592 2603 2996 3884 3654 3822 3633 3418 3316 3150 3108 3006 2718 2682 2621 2687 2494 2178 2190 2271 2489 2883 2859 2385 2270 2451 2472 2177 1566 1367 1245 1143 1364 1519 1864 1485 1938 1536 1585 1542 1727 1802 2446 2494 1993 1852 1694 1982 2237 2140 2249 2186 2502 2601 2459 2555 2577 2412 2249 2409 2638 2811 2638 2090 1689 1634 1690 1646 1587 1398 1376 1642 2852 2960 2934 2872 2863 2824
2028 2089 2224 2344 2566 2873 3051 3167 2480 3151 3798 3812 3785 3342 3210 3329 2994 3188 3002 2755 2532 2389 2434 2472 2410 2416 2390 2349 2273 2207 2254 2447 2320 2601 2165 1796 1540 1402 1604 1840 1987 1745 1507 1400 1517 1622 1803 1491 1688 1745 2262 2488 2143 2216 2218 2160 2346 2419 2284 2388 2510 2564 2585 2536 2445 2528 2488 2532 2576 2551 2539 1977 1756 1654 1710 1728 1675 1672 1678 1949 2356 2625 2724 2955 2906
2072 1850 1849 2007 2162 2562 2803 3172 2289 3036 2831 2145 2609 2965 2877 2946 2878 2999 2959 2480 2594 2776 2610 2781 2312 2175 2046 2130 1912 2028 1904 2081 1955 1704 1798 2148 2113 1864 1669 1828 1800 1484 1921 1550 1617 1717 1500 1725 1834 1553 1665 2040 2225 2186 2428 2476 2242 2332 2361 2328 2422 2488 2501 2465 2514 2517 2472 2500 2477 2463 2508 2557 2085 1854 1821 1840 1833 1784 1921 1909 2097 2228 2245 2638 3023
1946 1893 2110 1983 2097 2332 2685 2194 3049 3460 3501 3356 3178 3224 3253 3157 2814 2942 2517 2669 2407 2275 2105 2039 2084 1960 2073 2274 2356 2295 1944 1530 1624 1740 1758 1812 2167 2228 2028 2133 2132 2190 1896 1726 1385 1622 1725 1711 1220 2357 2064 1748 1498 1852 2098 2340 2300 2258 2512 2460 2397 2612 2654 2564 2593 2584 2578 2444 2452 2575 2608 2532 2356 2180 2139 1912 1939 1876 1878 1946 1973 2078 2164 2322 2861
1792 1986 1972 2008 2103 2460 2648 2938 2841 2956 3123 3206 3226 2896 2636 2266 2476 2514 2878 2582 2240 1962 2130 2180 2323 2132 1908 2032 2106 2171 1760 1617 1962 1874 1875 1743 1684 1617 1799 1698 1498 1799 1976 1888 1129 1846 1515 1253 1030 1702 1869 1645 1466 1307 1786 2171 2313 1985 1996 2085 2218 2526 2710 2598 2705 2598 2496 2355 2310 2434 2676 2886 2774 2584 2406 2193 1938 1846 1895 1946 2019 2053 2061 2075 2165
1566 2025 2093 2146 2329 2282 2314 2241 2557 2619 2409 2761 2839 2825 2708 2791 1999 1728 2308 1792 1713 1384 1293 1562 1723 1644 1788 1792 1740 1959 1896 1602 1650 1689 1482 1498 1601 1922 2396 2048 1502 1594 1418 1854 1356 1393 2172 1234 1579 1160 1512 1291 1545 1498 1709 2051 1626 1548 2014 2023 1874 1878 1763 2456 2896 2720 2278 1999 1824 2196 2461 2658 2876 3046 2738 2312 2055 2073 2076 1967 1931 1997 2080 2022 2151
2323 2197 2256 2333 2350 2208 2216 2213 2322 2640 2191 3047 2933 2890 2714 2294 1959 1970 1724 1542 1898 1584 1271 1242 1330 1518 1460 1126 1458 1825 1872 1852 1945 1754 1855 1862 1999 2288 2387 2297 2382 1754 1337 1327 1241 1722 1772 1299 1452 1200 1191 859 1423 1412 1546 2142 2113 1650 1647 1593 1634 1474 1384 1913 2563 2761 2306 2136 1874 2051 2282 2574 2769 2999 2720 2702 2266 2244 2358 2357 2127 2024 2086 2125 2278
2243 2301 2262 2189 2190 2202 2360 2251 2437 2681 2829 2607 2820 2662 2034 1970 1839 1601 1576 1542 1467 1584 1432 1405 1396 1369 1312 1771 2114 2274 2130 2117 2123 2176 2427 2583 2562 2361 2336 1844 1478 1564 1358 1372 1502 1676 1710 1548 1293 1758 1282 1652 1298 1189 1393 1648 2075 1971 1755 1745 1615 1328 1288 2017 1487 2808 2766 2227 2262 2046 2298 2281 2643 2926 2742 2534 2531 2374 2327 2406 2497 2416 2557 2318 2306
2108 2278 2227 2155 2230 2381 2610 2617 2880 2878 2730 2665 2789 2648 2177 2016 2069 2192 2159 2133 1964 1762 1781 1780 1700 1793 1791 1648 1702 1598 1887 2168 2523 2630 1971 1403 2187 2332 2371 2223 1934 1280 1283 1329 1471 1790 2026 1693 1531 1539 1409 2042 1966 1556 1314 1660 1858 1925 2071 1859 1427 1393 1938 1468 1204 1565 1643 2597 2440 2218 2188 1956 2550 2721 2902 2778 2866 2394 2310 2491 2492 2554 2643 2593 2615
2531 2617 2566 2519 2599 2680 2572 2582 2850 2745 2570 2285 2197 1909 2069 1923 1944 1850 1758 1464 1642 1941 2058 2053 2030 1771 1940 2139 1524 1983 2478 2380 1826 1732 1918 2266 2286 2235 2348 2266 2060 1488 1485 1372 1601 1798 1640 1605 1589 1665 1606 1723 1978 1918 1633 1806 1599 1556 1962 1827 1763 1642 1391 1412 1499 1258 1386 1788 2568 2151 2776 2817 2578 2545 2558 2880 2982 2870 2590 2442 2478 2619 2722 2856 2580
2915 2794 2928 2824 2915 3069 2656 2871 2900 2611 2546 1944 1905 1760 1884 2057 1704 1578 1450 1805 1883 2164 2228 2278 2178 2112 1723 1342 1232 1622 2034 2208 2260 2482 2704 2657 2318 2278 2367 2242 2187 2198 1829 1616 1743 1811 1621 1658 1800 2268 2774 2537 1974 1796 1813 1852 1377 1289 1492 1616 1531 1450 1340 1447 1617 1692 1529 1711 1696 1332 1820 2960 2724 2411 2571 2640 2609 2976 2760 2538 2475 2658 2721 2891 2937
2856 2811 3051 2966 3106 3084 2589 2710 2799 2685 2716 2127 2047 2323 1997 1900 1989 1985 1901 1880 1946 1994 1901 1325 1208 1093 1024 937 952 878 1009 1263 1432 1709 2400 2700 2578 2564 2724 2516 2496 2469 2435 2278 2177 1989 1979 1920 2320 2652 2737 2282 2094 1846 1448 1276 1182 1012 933 1682 1230 1184 1282 1073 1250 1448 1622 1479 1654 1228 1374 1881 2886 2477 2448 2907 2976 3142 3158 3033 2961 2885 2833 2750 2896
2791 2642 2738 2751 2773 2795 2745 2710 2998 2986 3033 2728 2376 1912 1958 2063 2222 1936 2278 2029 1368 958 784 960 952 816 923 826 802 952 580 551 698 1079 1233 1647 1330 1616 1786 2241 2114 2107 2373 2291 2138 2296 2383 2411 2347 2266 2398 1386 1546 1004 1550 1532 1332 1064 716 970 1614 1327 1291 942 1110 1308 1207 1340 1284 1746 1577 1497 1978 2241 2072 2954 2958 3032 2852 2882 3054 2942 2718 2780 2956
2558 2932 2869 2903 2665 2662 2936 2866 2965 3000 2656 2423 2271 2160 2065 2120 1776 1536 1178 1059 1030 999 668 530 506 456 467 354 522 530 246 122 328 546 624 668 985 1392 1416 1372 1523 1585 2101 2396 2305 2316 2062 2340 2092 2276 2380 2256 1987 1701 1544 1612 1492 1441 1194 992 1280 1031 1374 1567 634 1608 767 768 1183 1313 1276 1187 710 1923 2050 2348 2895 2602 2998 2606 2731 2917 2756 2783 2905
Wind_Speed
7 10 10 10 10 13 12 13 13 12 12 11 9 7 6 6 6 5 6 7 8 8 9 9 8 7 6 6 6 5 4 3 2 2 2 1 2 1 1 3 5 7 8 10 15 19 20 17 13 14 15 13 12 11 11 10 9 10 10 9 12 17 17 9 14 19 23 26 27 28 23 22 23 20 21 21 21 15 11 11 10 10 8 7 9
7 7 7 8 6 10 11 10 10 10 10 9 8 7 6 6 6 6 7 8 9 10 10 10 10 9 8 7 6 5 4 3 2 2 2 1 2 3 4 5 4 4 6 9 10 10 11 15 17 15 14 15 15 14 16 13 10 11 12 13 15 19 17 13 15 17 23 27 28 28 23 21 22 20 21 21 24 18 11 11 12 8 6 8 8
6 5 6 7 7 7 7 8 8 8 8 8 8 7 7 7 6 6 7 9 10 10 10 11 10 9 8 7 6 5 4 3 3 3 3 2 1 3 4 6 6 7 6 7 9 11 10 12 14 14 9 11 13 12 13 15 14 16 14 14 17 20 15 16 19 20 24 27 28 26 23 21 21 21 19 20 25 19 11 10 12 9 7 9 6
8 5 5 5 6 4 5 6 7 7 7 8 8 7 7 6 6 6 8 9 10 10 10 10 10 9 8 8 7 6 4 4 4 4 3 2 2 2 3 3 5 4 5 5 7 9 12 13 16 17 20 14 12 7 11 14 14 17 17 17 18 22 17 19 21 23 27 29 25 18 17 19 20 19 16 18 23 17 10 8 12 10 11 8 4
7 5 4 4 5 4 3 5 6 6 7 7 8 7 7 6 6 7 8 9 10 11 11 10 11 10 10 9 8 6 5 4 3 4 4 3 2 3 3 3 4 7 7 9 10 11 11 12 11 14 14 19 22 19 15 12 14 16 16 17 20 21 21 20 24 23 24 28 20 17 15 18 18 17 13 15 20 16 10 6 11 8 8 6 2
6 5 4 4 4 5 1 3 5 6 7 7 8 7 6 6 6 7 9 9 9 10 11 11 11 10 10 8 7 6 6 5 4 4 4 4 3 3 3 3 5 6 7 8 9 11 11 13 15 14 14 14 14 16 18 16 10 13 14 14 16 23 23 17 20 23 25 24 20 15 15 15 15 15 12 11 15 14 9 7 7 6 5 2 1
7 5 4 4 3 5 1 2 4 6 7 7 7 7 6 5 5 6 8 9 9 10 11 12 11 11 10 9 8 7 6 5 4 4 3 3 4 4 6 5 2 5 5 7 9 11 12 12 13 14 14 13 13 12 12 12 10 8 12 11 14 26 21 20 19 23 23 21 17 16 14 14 14 13 13 9 11 11 9 6 4 5 3 3 2
4 4 5 4 3 6 2 2 4 5 7 7 7 7 7 4 3 4 6 8 8 9 11 12 13 12 12 11 10 8 7 6 4 3 3 3 3 3 4 4 3 3 6 7 7 7 11 10 9 11 12 12 12 11 11 12 10 6 7 12 21 25 22 20 18 20 22 17 15 14 14 15 13 9 9 8 6 6 8 5 3 3 3 3 3
3 4 5 5 6 9 4 6 5 6 7 7 8 8 7 5 3 2 4 7 8 9 11 12 12 12 11 11 10 9 8 6 4 3 3 4 4 5 5 3 5 6 6 8 11 12 11 11 11 11 11 9 7 7 8 6 11 12 9 15 17 23 19 20 19 20 21 17 14 14 13 10 9 6 6 6 4 2 6 2 2 3 2 3 4
2 3 3 4 6 8 8 7 6 6 7 7 7 8 7 5 3 2 2 5 7 7 10 11 12 12 12 11 12 9 6 6 6 5 5 5 4 4 4 5 4 5 5 8 10 11 13 13 11 9 10 10 6 4 5 8 6 11 13 19 21 19 19 20 22 21 19 17 15 13 8 7 4 5 7 3 3 4 3 4 2 1 1 4 4
1 1 2 4 8 9 8 8 8 7 6 7 7 7 6 6 4 3 3 4 6 6 8 10 11 11 11 11 11 9 8 8 7 7 7 6 5 5 5 4 5 5 8 10 11 11 10 10 10 8 8 7 4 4 8 8 7 11 18 18 21 17 20 21 23 17 15 15 12 7 5 9 2 4 10 3 4 7 4 5 2 2 4 5 4
2 0 2 4 9 8 7 7 8 8 7 7 7 6 6 5 4 3 4 5 6 6 7 8 9 9 10 10 10 10 10 9 8 8 7 7 7 6 5 4 4 5 8 11 10 10 9 9 8 8 8 7 6 3 6 5 6 11 17 20 15 13 17 19 14 13 12 12 10 5 6 7 5 5 9 4 3 6 3 5 4 4 4 4 6
2 1 3 4 5 7 6 6 6 7 7 7 6 5 5 5 5 5 5 6 6 6 5 6 7 7 8 8 8 9 10 10 10 10 9 8 7 6 5 4 3 4 7 11 12 11 8 8 7 6 6 5 5 3 4 5 8 9 17 13 10 13 14 12 8 9 6 7 6 7 8 7 6 7 7 5 4 6 8 6 5 4 5 4 6
3 3 3 3 4 7 5 5 5 6 6 6 6 4 4 4 4 5 5 6 7 6 5 5 5 6 6 5 6 6 7 8 9 9 8 8 8 6 5 3 2 3 6 9 11 9 8 8 6 5 4 4 3 3 6 6 7 8 12 15 11 9 8 8 4 4 4 5 6 7 6 6 5 9 8 7 5 8 8 6 5 3 5 6 4
3 3 4 4 4 4 5 4 4 5 5 5 5 4 3 3 3 4 4 5 6 5 4 4 4 4 4 4 4 4 4 5 6 9 11 12 11 10 7 4 2 1 5 7 8 9 6 7 5 4 4 2 2 3 6 4 4 6 8 8 14 12 10 3 1 3 2 5 5 5 5 6 8 11 12 10 6 7 7 9 5 3 4 6 4
3 4 4 5 4 5 2 2 3 3 5 4 4 3 3 3 3 3 3 4 4 4 3 3 3 2 3 3 3 3 2 3 8 10 9 10 9 7 8 8 5 3 1 5 8 7 7 6 4 2 3 1 1 3 3 4 4 3 3 6 6 8 7 7 3 2 2 4 5 6 4 5 11 9 10 9 6 7 8 9 5 4 4 6 5
7 5 5 6 5 4 4 1 2 3 4 4 4 4 4 4 3 3 2 2 2 3 2 2 2 3 2 2 3 2 1 3 7 5 5 7 7 7 5 5 4 4 2 2 5 8 7 6 5 5 3 1 2 3 3 2 2 1 2 2 4 7 7 6 0 1 3 3 4 4 3 3 8 8 8 8 6 7 8 11 9 4 5 7 6
8 6 5 6 6 5 5 3 3 2 3 4 5 4 4 4 3 3 2 1 1 2 2 2 3 3 3 2 2 2 3 2 7 6 6 5 6 6 5 4 4 3 1 1 3 7 6 5 5 5 3 1 2 2 5 3 2 1 2 2 1 1 6 3 2 3 4 4 3 3 2 4 9 8 9 8 6 6 9 12 9 6 6 7 6
8 6 6 6 6 6 5 4 3 1 3 2 3 5 4 3 3 2 2 1 0 1 2 3 5 4 4 4 4 4 5 2 8 7 6 5 7 7 5 2 3 2 3 3 3 6 6 4 5 6 5 3 2 3 4 5 2 2 2 2 2 2 3 6 2 1 6 3 1 1 2 8 9 8 8 6 4 5 10 14 9 8 7 7 7
9 6 6 7 7 6 5 5 4 2 2 2 3 4 6 4 3 3 1 0 1 1 3 5 5 5 5 6 6 8 7 4 6 6 2 6 9 8 1 1 3 3 4 6 5 7 6 5 5 6 5 5 4 2 3 4 5 1 1 1 3 5 6 3 11 4 4 4 3 1 1 7 7 5 3 2 4 6 11 16 10 8 7 7 7
10 7 6 7 7 5 5 6 5 3 3 4 4 4 7 6 5 4 2 0 0 2 3 6 8 7 7 5 7 7 5 2 3 7 12 2 4 14 5 8 5 6 6 8 6 8 7 6 6 6 7 5 5 4 2 2 4 4 2 1 4 7 7 4 5 5 4 5 3 4 7 6 3 3 4 4 6 9 12 17 9 7 7 7 8
11 10 7 7 7 6 5 6 6 5 5 5 6 5 6 4 4 5 3 5 5 4 6 4 3 5 5 6 5 4 3 2 1 0 3 10 4 6 11 11 10 10 8 9 9 8 6 5 7 6 7 7 7 8 2 1 2 4 4 2 5 8 6 5 1 5 4 6 4 7 13 10 5 6 6 8 9 11 12 10 8 7 7 8 9
13 12 10 7 8 8 6 6 7 7 6 6 7 6 6 4 5 5 5 3 2 3 3 3 4 3 3 5 5 4 2 3 2 1 2 4 6 11 9 8 9 11 13 11 8 7 6 7 7 8 7 9 10 4 4 4 4 4 2 1 6 9 8 5 3 2 7 7 5 12 13 14 11 8 9 7 10 11 8 7 8 8 8 9 8
14 13 12 10 9 9 7 7 8 8 7 7 7 6 6 6 5 6 5 5 5 4 3 2 2 3 3 3 5 2 4 3 2 5 8 5 8 12 10 9 12 12 11 7 7 9 10 8 8 8 10 8 5 3 2 2 5 2 5 4 3 6 4 4 4 1 4 8 6 13 11 9 8 7 5 6 8 10 10 7 9 7 8 9 7
15 14 14 11 9 10 9 9 9 9 8 9 8 6 8 6 6 6 5 5 4 4 3 4 3 3 3 3 4 3 3 3 2 2 2 0 0 1 7 9 10 8 10 6 8 9 11 8 7 8 4 4 4 2 3 2 3 2 1 2 2 2 2 3 4 2 1 4 5 9 7 5 5 5 4 5 7 12 11 9 8 7 7 9 8
16 14 13 12 10 10 9 10 9 9 9 8 8 9 8 6 7 7 6 5 5 4 3 3 3 3 2 2 1 3 4 3 2 2 1 1 1 1 1 1 1 2 10 6 6 11 10 9 6 4 3 3 3 3 1 2 3 4 2 3 3 1 1 2 2 2 1 2 6 8 5 4 5 7 5 8 8 13 12 12 10 7 7 8 8
16 14 13 12 11 9 10 10 9 9 8 8 10 10 8 7 8 8 6 6 5 4 4 3 4 3 2 1 2 1 2 2 1 1 1 2 1 1 1 1 1 1 1 2 6 6 5 8 7 2 2 2 2 2 2 2 3 4 4 3 3 2 2 1 1 1 1 2 7 10 7 7 8 9 11 11 13 13 10 10 9 9 6 8 8
16 14 12 11 11 9 10 8 10 9 8 9 10 10 10 9 8 9 7 7 5 4 4 5 5 4 3 2 2 0 1 1 1 2 2 1 0 0 0 0 1 0 2 1 3 3 7 6 5 4 3 3 1 1 1 1 1 2 3 3 3 2 2 2 1 0 0 3 6 9 10 10 10 11 12 13 13 10 8 7 8 8 8 7 8
15 14 13 12 11 10 9 7 8 8 8 9 9 10 10 9 8 7 6 8 5 4 5 6 5 5 5 4 3 2 2 nan nan 0 0 1 1 0 0 1 1 1 1 2 1 1 1 3 3 3 2 2 1 1 1 2 2 2 2 2 2 3 2 2 1 1 1 1 4 8 10 10 9 9 8 7 7 8 8 7 7 8 8 9 8
16 15 14 13 12 10 8 7 7 8 8 9 10 11 10 9 9 8 7 7 5 5 5 6 7 7 6 7 6 4 3 nan nan 3 1 0 1 1 0 1 2 1 1 2 3 1 1 2 2 2 3 2 2 1 0 3 3 2 2 2 2 2 2 2 3 2 2 2 2 4 12 8 9 8 7 7 7 7 8 7 8 9 10 9 10
18 14 13 13 12 10 8 8 8 10 10 9 11 10 10 10 10 9 9 8 7 6 7 7 7 6 7 9 6 5 4 nan nan 3 2 1 1 1 1 2 2 2 3 1 4 2 1 2 3 1 1 1 2 2 1 2 3 3 3 2 2 2 3 3 2 3 4 3 2 2 5 9 8 9 8 7 8 7 8 9 8 8 9 10 9
17 15 15 14 12 10 9 9 8 11 10 9 9 9 9 10 10 9 9 10 10 8 8 9 8 7 7 7 7 6 6 5 4 3 3 2 2 2 1 1 2 3 2 1 1 3 2 2 4 3 2 1 0 2 2 1 2 3 3 2 2 1 2 3 2 2 4 4 3 2 2 4 9 9 9 9 8 8 8 9 9 8 8 10 10
14 15 15 15 12 11 11 10 10 11 9 8 8 8 10 11 11 11 10 11 10 11 11 10 9 9 8 7 7 7 6 4 4 4 4 3 3 3 2 3 2 4 2 2 2 2 2 4 4 3 1 1 0 1 2 1 2 3 2 3 3 2 2 3 3 3 3 4 3 2 2 2 4 9 10 9 9 8 8 8 9 9 8 8 10
12 13 11 10 11 13 12 12 11 10 9 8 9 10 10 11 12 12 12 11 11 12 12 11 10 10 9 9 7 7 6 6 6 5 5 5 4 3 5 5 5 3 3 1 1 4 3 3 4 2 2 1 1 0 1 1 2 2 3 4 3 3 4 3 4 4 3 4 4 3 2 2 2 2 5 10 10 9 9 8 8 9 9 8 9
12 10 6 6 8 11 12 12 11 10 10 9 10 10 11 10 12 13 13 12 11 12 13 12 11 11 10 9 9 10 10 8 6 6 5 6 5 5 5 6 2 7 5 3 4 4 3 2 3 2 2 2 2 1 1 0 1 1 3 3 3 4 3 3 3 4 4 4 5 5 3 2 2 2 2 3 9 11 10 9 8 9 10 9 9
8 8 7 7 7 8 11 12 13 11 11 10 11 11 11 11 12 13 13 14 14 14 13 13 12 12 11 10 10 12 11 7 6 5 5 6 6 7 10 8 9 10 6 4 4 3 4 3 3 2 2 3 2 2 1 1 0 0 2 2 3 3 4 4 4 3 4 3 4 5 4 3 2 2 3 3 3 5 12 9 9 8 9 10 9
6 6 7 7 7 9 11 12 13 12 10 11 13 14 13 12 13 14 16 16 15 15 13 12 11 11 12 10 10 11 9 6 5 6 7 7 8 9 9 9 11 10 8 5 4 4 4 3 4 2 3 3 3 3 1 1 1 1 1 1 3 4 4 5 5 5 4 4 3 4 5 5 3 2 3 4 5 5 8 10 9 8 8 8 9
5 5 6 7 7 9 11 12 12 11 12 13 14 14 14 14 14 15 16 15 14 13 13 12 10 11 12 12 13 12 9 7 6 5 5 5 6 7 8 9 10 12 10 11 2 2 3 4 2 2 1 1 0 1 1 1 1 1 0 1 2 4 4 5 7 6 5 4 4 4 4 5 4 2 1 2 4 4 5 6 9 8 8 7 8
5 5 5 6 8 10 12 12 11 10 12 14 16 14 15 14 13 14 15 16 15 15 14 12 11 12 12 11 10 8 4 2 2 4 7 7 7 5 3 8 13 13 10 8 7 4 2 3 1 2 3 2 1 2 3 4 3 2 1 1 1 2 4 4 4 5 6 6 6 5 5 4 4 3 2 2 2 3 3 5 2 2 1 9 7
4 5 4 5 7 10 11 11 10 11 13 12 11 12 13 13 12 13 15 15 15 14 12 10 7 5 2 3 4 4 7 8 8 10 12 11 10 11 9 1 8 9 7 5 4 5 4 0 3 1 2 5 4 3 4 4 4 3 2 2 1 1 1 3 3 3 5 5 6 5 4 4 3 3 3 2 2 2 2 3 4 3 3 5 10
4 5 6 6 7 8 9 10 12 13 12 12 10 10 10 11 9 7 5 6 4 1 2 4 5 7 9 9 10 10 10 12 13 13 13 12 12 12 14 11 2 4 4 3 2 4 5 6 4 5 3 3 4 7 7 6 4 4 5 3 2 2 1 1 2 3 3 5 5 5 6 5 4 3 3 3 2 2 2 2 3 4 3 4 5
6 5 5 3 3 4 6 9 11 11 10 9 9 8 6 4 3 3 3 5 6 8 9 10 10 9 10 12 13 12 12 12 12 13 12 11 12 13 15 16 12 6 2 0 3 2 1 2 2 2 6 5 5 7 10 10 6 4 5 6 4 4 4 2 1 2 3 4 5 5 6 5 5 5 5 4 3 3 2 2 2 2 2 2 2
8 9 8 5 2 1 1 2 3 4 5 4 4 3 2 3 4 5 5 5 7 9 10 11 11 12 12 13 13 11 10 11 13 12 12 12 13 13 13 14 14 11 9 6 5 6 4 2 4 6 5 5 7 8 11 11 6 7 8 7 5 4 8 2 3 2 4 5 4 4 4 5 4 6 7 6 6 4 3 2 2 2 1 1 1
9 9 9 8 6 6 5 5 5 5 4 4 5 5 4 4 5 5 4 6 6 8 10 12 12 13 13 12 12 10 11 11 12 13 13 14 13 14 13 12 12 12 11 10 9 8 8 8 10 8 9 5 10 10 11 11 7 8 7 7 7 8 6 7 6 7 5 6 6 5 5 6 5 6 8 7 6 6 6 4 2 2 2 1 2
9 8 8 7 6 7 6 6 6 6 5 4 5 5 4 3 5 5 5 6 9 12 13 12 11 9 10 10 9 8 10 11 12 12 13 14 14 14 14 13 11 11 11 11 10 10 10 9 9 6 5 6 6 10 13 13 10 7 7 8 9 7 8 12 8 12 10 7 6 7 8 6 7 7 8 7 7 6 6 5 5 5 4 3 2
6 5 6 6 6 6 5 5 4 4 5 4 4 4 6 5 8 9 9 8 9 10 10 8 7 8 8 9 8 8 9 11 11 11 12 14 14 14 13 13 13 12 12 13 12 12 12 11 10 9 8 8 5 5 9 16 12 9 7 6 9 9 12 11 9 13 12 8 9 8 8 8 7 8 9 8 7 6 8 7 7 7 6 5 5
4 4 4 4 5 5 5 5 4 4 3 3 3 5 6 8 9 9 8 6 6 5 7 9 8 6 7 5 6 9 10 12 13 14 13 12 12 13 12 13 14 14 14 14 14 14 13 13 11 11 10 7 6 6 6 10 14 11 10 7 6 6 7 9 9 10 12 13 15 11 9 9 10 10 9 8 7 7 8 9 8 8 9 8 7
5 6 6 6 5 5 5 4 3 4 3 2 4 4 6 6 4 4 4 4 4 3 5 6 6 5 5 5 6 5 6 6 7 9 11 12 12 12 12 12 13 13 14 15 15 14 13 12 12 10 7 8 9 7 5 7 13 10 11 11 10 8 7 7 7 9 10 12 13 14 10 10 12 12 10 10 9 9 9 10 10 10 11 10 10
8 8 7 7 6 5 4 3 2 2 1 2 2 3 2 1 1 1 1 3 3 2 3 4 5 5 4 4 6 6 6 7 7 8 10 11 11 11 11 12 12 12 13 13 14 13 13 13 13 14 14 13 11 11 10 9 9 8 11 12 11 11 11 11 9 9 10 10 10 12 12 11 13 13 12 11 12 12 12 12 12 12 12 12 12
7 7 7 6 6 5 3 3 2 1 1 3 2 2 2 1 1 1 2 2 2 2 2 2 3 3 4 4 5 5 7 7 9 9 8 9 10 11 11 12 12 12 11 11 12 12 13 13 15 16 16 15 15 14 13 10 8 7 8 11 13 13 14 12 16 11 10 9 10 13 13 18 16 14 11 13 12 12 13 14 14 13 13 13 14
4 5 6 6 5 5 6 6 5 3 3 4 5 5 4 4 4 3 2 2 2 2 2 2 3 3 4 4 4 4 4 4 4 5 7 8 8 9 8 9 8 10 11 12 12 13 14 14 14 16 16 16 15 15 14 12 10 8 7 9 11 14 14 16 16 19 19 16 12 10 11 13 16 16 13 14 16 13 13 15 16 15 14 14 15
Wind_Direction
16 336 329 326 351 351 350 349 330 313 314 309 304 294 279 260 250 236 224 226 220 211 205 206 208 212 214 216 224 242 255 253 245 256 253 274 286 284 267 338 338 332 335 334 338 351 352 353 355 347 348 347 349 348 348 345 348 341 331 319 301 290 287 298 277 268 274 273 267 266 272 274 277 279 273 264 268 270 247 204 213 228 230 258 289
13 344 329 331 346 346 352 338 317 311 309 303 299 287 275 262 251 242 228 223 219 211 202 200 208 213 213 216 227 239 254 270 277 247 250 273 295 313 337 331 344 339 336 334 341 336 340 347 347 342 342 343 349 353 345 345 356 351 340 326 310 299 305 299 278 274 276 272 268 266 270 274 276 280 280 272 278 284 262 210 214 225 232 273 288
347 348 337 328 340 348 342 328 316 309 303 299 295 287 280 274 263 246 230 224 219 212 205 202 209 216 217 221 227 234 242 244 233 222 229 247 291 325 338 339 333 340 338 347 341 341 341 341 322 322 337 347 345 348 348 346 348 354 349 332 317 300 303 295 284 277 276 266 264 264 270 274 272 276 277 273 279 283 268 228 233 231 254 291 290
339 353 340 322 343 343 334 323 310 303 298 294 290 287 284 280 272 251 232 222 217 213 207 206 208 212 217 222 224 230 233 231 220 213 218 238 272 309 299 316 317 296 339 341 347 344 345 342 334 334 336 345 319 345 3 345 356 351 348 337 324 308 306 295 284 275 267 266 264 266 265 267 268 273 269 275 279 279 262 217 242 250 285 297 302
335 347 333 346 341 322 341 317 303 298 292 290 285 284 286 286 276 255 238 222 214 214 210 210 211 212 215 218 224 229 233 229 216 210 212 218 240 275 297 311 312 331 335 337 347 342 339 332 321 333 335 332 334 343 359 346 357 348 343 336 322 308 294 279 274 268 273 267 278 262 255 268 271 277 269 276 276 275 257 225 264 282 283 293 329
336 341 346 352 335 300 17 314 300 294 290 287 285 286 288 293 279 250 235 223 215 217 218 220 219 215 216 218 223 224 227 224 214 217 214 221 217 229 281 309 322 332 334 333 333 332 327 327 332 327 330 328 323 332 331 340 355 343 335 330 310 283 266 268 277 280 276 280 279 272 272 265 272 282 288 277 272 268 258 269 301 291 298 327 28
329 342 355 350 337 299 321 300 295 289 288 288 293 295 292 299 281 252 233 223 212 219 229 228 222 220 219 218 218 218 225 224 222 219 218 218 213 207 218 233 277 308 304 325 325 321 320 322 324 322 321 321 322 321 320 320 331 323 315 300 276 273 281 272 271 282 283 276 275 278 273 285 291 278 294 278 268 272 282 296 329 307 317 56 54
343 359 342 346 335 296 337 305 292 289 292 295 297 297 294 300 283 252 232 225 215 219 226 225 223 222 219 217 211 221 224 215 213 216 219 225 222 223 269 307 322 288 317 304 293 315 316 311 319 324 324 317 317 323 323 325 323 319 308 298 270 262 273 286 295 300 299 285 296 291 287 295 301 284 298 284 241 277 305 318 355 318 343 40 58
357 345 341 332 312 305 330 304 293 296 298 301 306 303 298 302 294 253 231 226 219 214 223 225 225 226 230 230 230 218 210 216 214 211 219 214 217 225 259 261 281 316 321 321 328 336 323 329 338 342 328 314 309 306 300 309 314 318 316 288 276 288 297 304 308 306 295 299 301 295 297 296 305 311 323 299 210 278 322 346 31 310 349 29 38
10 337 332 322 319 305 324 312 301 298 301 305 310 301 306 307 310 303 253 232 220 218 221 221 221 223 226 232 241 227 222 220 211 210 217 212 212 223 233 279 285 283 303 313 327 332 327 327 333 332 317 315 310 290 290 286 264 278 283 286 283 298 310 310 309 305 301 307 308 304 300 310 315 325 344 349 170 136 19 65 115 356 8 17 45
49 324 317 311 308 315 322 318 306 298 305 308 308 304 310 308 309 305 269 243 230 220 227 222 220 223 224 225 228 244 240 227 228 218 215 215 217 226 237 241 271 301 312 318 322 323 320 316 313 317 304 296 286 262 245 241 234 252 275 283 300 316 314 311 311 305 309 311 314 324 327 337 357 326 344 9 139 120 56 81 25 357 352 10 10
130 259 276 282 303 323 325 319 308 304 308 308 305 307 306 298 299 278 261 244 233 225 229 226 219 220 224 225 227 228 235 242 235 233 230 228 227 223 232 242 262 302 311 306 309 321 324 314 315 309 301 304 292 254 261 251 242 251 262 285 305 306 311 301 300 316 322 328 339 4 350 358 11 341 353 51 92 116 75 45 30 348 3 357 23
151 178 253 284 306 320 332 326 313 313 311 307 301 295 293 288 286 272 257 244 233 227 225 230 220 221 218 218 233 234 229 227 229 231 230 230 233 233 235 247 239 287 309 311 325 327 325 321 324 304 292 288 286 229 226 267 258 263 287 284 297 311 310 313 333 327 340 350 5 12 8 14 13 348 27 38 95 124 133 40 40 342 338 22 34
178 184 237 269 277 314 329 338 331 323 313 307 297 285 281 280 278 269 260 248 238 229 223 225 222 222 221 215 224 229 226 223 225 232 239 238 230 228 241 251 273 307 323 322 323 320 325 325 328 314 294 275 266 148 157 216 247 276 295 307 313 311 333 344 322 297 348 8 25 22 11 29 32 11 30 48 69 128 116 77 45 350 332 39 52
196 217 230 252 267 296 313 342 345 329 319 308 297 297 301 296 286 275 265 257 249 238 229 223 220 219 218 220 227 232 226 226 228 226 229 222 221 210 200 212 245 316 325 327 318 323 331 330 343 327 281 258 194 136 146 209 275 297 279 319 330 339 345 49 346 225 7 30 30 23 33 45 11 12 16 28 67 113 87 100 52 21 360 49 70
214 224 235 239 252 266 288 318 347 339 320 315 311 320 330 333 314 292 277 267 253 244 223 219 200 194 206 206 210 219 218 220 229 230 230 236 227 220 212 205 187 184 318 342 328 335 337 335 28 18 323 330 98 137 133 178 195 233 279 304 346 325 331 83 53 33 59 29 9 14 31 50 4 7 16 25 71 82 75 104 66 48 37 72 79
199 212 230 235 250 257 259 287 310 335 321 324 326 340 352 348 337 304 292 263 246 233 206 135 161 152 170 181 201 164 142 251 252 249 261 249 246 238 230 229 200 236 127 98 349 342 349 3 37 53 38 359 94 117 132 222 233 206 194 225 342 349 320 80 183 14 53 44 349 358 14 20 16 357 15 37 52 55 85 111 95 65 66 74 78
211 187 212 234 244 247 247 265 293 12 318 334 333 341 347 353 337 321 301 286 242 200 151 112 110 132 128 137 115 111 92 282 298 295 280 269 264 262 242 240 244 253 3 38 7 358 356 13 40 54 43 20 56 105 144 163 217 256 202 180 111 38 335 6 113 29 350 64 353 334 8 352 351 356 17 27 33 58 92 109 88 83 72 73 79
217 195 198 223 234 241 248 254 287 326 324 327 330 327 334 335 325 318 317 303 152 142 91 112 101 111 113 103 106 74 90 60 311 322 316 293 281 270 235 219 294 320 7 33 357 351 359 31 62 60 50 57 81 117 135 147 191 200 231 164 118 86 46 15 339 11 348 4 258 131 190 334 2 15 18 30 33 71 94 107 88 81 67 68 77
226 211 198 204 223 238 241 241 254 270 298 289 295 313 314 318 316 313 301 266 110 127 98 99 113 106 111 102 97 86 59 32 312 310 286 324 301 273 202 5 315 28 16 37 8 344 0 23 41 45 55 73 69 18 115 141 133 181 207 100 111 107 103 92 297 25 336 305 318 242 305 352 4 12 40 46 81 86 98 107 82 74 67 75 70
212 222 203 208 218 229 244 238 251 257 258 260 269 278 289 315 323 317 320 338 24 97 110 74 62 52 75 71 75 72 62 49 12 319 333 122 349 309 10 5 335 34 8 30 15 360 2 19 29 32 56 75 68 73 333 139 149 143 145 113 117 122 143 183 292 298 290 304 329 282 341 345 356 40 102 106 82 89 96 94 78 73 75 75 71
206 214 208 217 219 222 235 235 247 254 243 235 245 253 275 324 316 318 347 350 2 43 51 97 88 93 32 63 85 77 78 66 355 323 285 329 11 341 352 8 354 2 2 20 10 12 23 43 39 44 41 53 72 65 290 122 78 119 118 177 150 136 143 169 221 312 317 289 315 301 332 332 350 60 65 89 92 96 84 70 83 84 78 69 62
206 209 209 216 216 218 219 230 238 246 245 235 238 253 272 283 306 310 311 324 348 15 67 43 85 79 86 98 85 73 88 89 49 187 167 125 18 359 14 26 9 11 7 1 356 20 42 50 46 35 43 46 52 77 21 346 100 56 98 173 152 141 147 165 129 346 319 312 306 328 337 328 3 29 35 62 91 98 69 72 82 82 82 67 56
209 207 212 209 215 214 221 220 229 236 235 235 235 250 265 281 285 303 313 319 339 352 3 33 46 70 71 78 74 81 73 50 37 32 43 25 345 4 24 30 19 20 4 348 348 25 41 52 52 39 37 47 63 53 98 64 345 34 151 144 151 128 145 137 126 104 308 311 294 334 328 336 357 26 54 55 92 108 90 74 85 86 88 76 54
218 210 210 208 213 220 220 222 223 225 230 234 243 245 260 267 279 288 294 305 323 330 338 341 360 20 52 43 61 79 97 82 56 58 87 204 215 311 355 346 22 22 35 332 1 25 38 49 40 39 63 73 77 72 102 154 139 88 24 344 33 90 156 143 141 154 281 307 286 320 313 331 12 38 62 78 84 90 91 80 80 82 81 78 63
230 219 215 211 210 221 221 224 230 228 230 229 237 248 250 263 273 274 279 294 301 308 319 327 329 333 12 33 67 61 58 60 44 46 34 30 58 276 295 259 133 41 1 2 17 9 22 41 41 44 43 84 110 117 119 141 162 126 135 195 177 244 161 161 176 167 200 276 289 321 327 0 28 38 34 69 61 73 62 83 87 77 71 75 67
234 224 223 214 212 218 227 226 229 238 241 236 235 236 241 246 260 269 268 280 284 289 306 301 305 286 300 345 43 36 54 81 63 64 37 45 355 316 248 274 0 70 99 74 0 354 41 17 29 28 66 73 93 121 132 149 173 169 157 173 171 175 176 209 211 207 280 284 292 339 357 12 23 40 35 50 53 60 62 59 75 84 83 81 68
227 230 221 222 221 219 228 229 234 234 243 244 239 238 235 234 242 256 268 261 264 296 293 288 268 291 294 254 249 335 59 33 34 49 57 53 353 249 226 216 274 279 279 110 134 35 1 359 353 11 31 48 80 114 155 220 155 187 174 161 175 154 165 176 201 186 252 325 309 350 3 20 25 37 30 34 49 64 78 76 80 82 86 84 76
221 224 219 219 228 225 236 230 241 247 249 253 255 250 247 246 248 252 249 264 269 273 276 280 292 290 294 295 305 287 293 nan nan 29 226 111 166 34 324 243 264 234 263 281 197 138 65 312 336 7 28 67 66 64 281 263 213 194 189 186 170 157 166 159 135 103 93 26 343 342 4 21 34 40 48 58 67 81 89 96 92 89 89 83 73
217 217 220 219 222 228 232 239 238 248 247 256 255 260 265 264 269 267 263 269 268 270 266 277 287 294 302 293 278 261 256 nan nan 262 198 154 121 168 289 304 259 252 254 237 271 201 169 252 315 348 9 26 65 0 38 264 273 249 232 237 200 161 153 155 134 100 75 77 40 322 359 24 46 50 56 64 72 83 90 94 103 108 104 86 78
215 219 222 226 227 223 234 231 240 244 243 246 256 262 269 272 274 279 282 280 277 276 272 271 266 270 276 279 278 284 274 nan nan 279 289 283 139 202 213 244 252 248 241 183 287 258 208 221 240 278 306 358 359 315 358 278 262 269 252 244 228 194 165 183 157 114 96 81 63 359 355 17 41 59 65 66 74 79 88 94 95 105 110 100 76
215 216 223 226 230 235 237 245 236 248 243 251 258 264 272 277 277 278 281 284 285 279 274 271 267 260 257 261 270 263 257 256 262 277 282 250 197 184 193 203 220 219 218 180 277 281 261 256 267 239 216 224 317 325 326 276 266 264 267 249 221 210 198 180 169 128 105 93 84 62 26 19 34 49 60 67 70 77 87 92 96 96 99 95 79
220 220 220 222 227 233 237 247 246 251 253 254 264 260 268 273 277 276 276 280 285 286 284 283 280 275 273 273 276 276 275 269 262 259 252 258 226 197 181 183 203 210 193 176 189 292 291 273 276 267 261 243 61 355 343 317 274 277 264 242 209 199 211 187 174 152 127 107 94 84 86 37 38 36 51 62 67 70 74 82 87 89 86 79 77
238 233 229 223 225 230 236 241 247 253 261 257 252 255 260 267 272 276 276 277 276 280 285 286 278 275 268 267 264 266 263 252 243 235 234 233 226 217 197 200 202 233 221 255 310 310 280 233 242 258 254 164 132 116 332 358 285 260 247 259 220 208 200 190 166 157 149 129 113 98 99 109 90 63 56 50 59 66 73 78 80 82 83 70 65
239 239 256 249 227 231 236 243 251 259 264 263 256 254 256 259 265 266 269 269 271 273 273 273 279 276 275 275 267 263 263 253 242 238 231 232 230 226 223 249 227 212 225 267 306 293 280 254 235 212 203 164 128 173 147 116 265 242 239 248 237 221 202 184 183 153 144 145 128 108 98 111 124 120 92 75 46 55 62 70 75 74 72 73 60
244 236 250 257 242 236 244 246 256 258 263 262 260 254 254 255 256 259 263 269 267 266 266 269 269 272 282 289 291 283 279 279 269 261 253 246 239 229 233 223 209 220 230 243 275 282 284 264 228 234 184 150 163 129 170 120 114 298 259 236 233 232 204 188 180 167 158 154 135 112 100 98 112 140 140 138 126 45 39 54 66 67 68 66 65
244 241 261 267 253 253 255 255 259 262 260 263 262 261 253 249 249 253 258 263 269 272 272 271 268 272 275 277 276 275 272 259 268 293 280 263 246 240 241 235 226 215 217 239 268 289 269 262 266 231 182 156 112 95 140 158 103 2 336 293 232 227 196 193 186 182 188 150 135 120 108 95 88 109 163 157 155 160 7 31 40 56 61 61 65
269 273 272 266 261 261 260 257 255 261 263 264 268 264 259 256 257 261 267 273 277 271 270 270 271 267 266 271 274 278 283 287 291 312 317 300 276 266 244 233 235 234 215 216 217 272 266 266 237 278 240 222 101 128 188 216 214 131 21 329 253 236 215 197 184 177 178 167 157 140 125 115 98 78 121 157 163 169 176 360 23 34 49 57 57
276 294 280 266 259 254 251 250 242 257 271 269 266 263 263 264 262 271 280 281 278 275 273 275 281 280 274 274 275 281 308 343 347 1 18 31 26 15 289 241 252 246 234 218 194 188 253 245 254 291 287 279 278 278 227 228 239 250 204 301 268 251 225 223 200 186 176 175 171 165 161 142 130 111 99 127 162 173 172 183 231 213 33 35 43
289 296 300 282 269 263 256 245 257 261 270 274 266 258 262 268 275 282 285 286 283 279 273 271 274 294 326 20 26 37 45 54 55 53 54 43 33 30 31 355 231 238 245 247 229 210 169 314 337 357 335 316 320 298 281 265 258 259 264 269 319 244 244 238 226 191 181 182 182 180 176 177 162 142 111 110 124 130 170 178 189 214 208 347 18
340 328 303 291 278 266 259 262 263 266 266 266 263 261 268 277 285 301 310 304 306 328 81 96 81 73 68 65 61 66 66 66 63 58 55 45 36 30 31 40 36 233 240 268 213 158 203 187 199 278 303 328 319 309 301 282 270 266 283 295 302 342 10 290 234 217 195 188 190 194 189 189 197 194 177 153 131 118 148 170 186 189 211 213 323
17 8 7 338 290 274 267 265 273 272 265 258 256 261 270 280 253 162 108 75 73 81 88 91 93 82 77 80 75 75 77 72 62 55 47 41 38 37 38 41 46 53 77 185 140 100 4 263 51 302 312 322 311 312 298 298 296 278 262 273 288 305 347 353 286 239 235 218 200 200 201 200 199 207 211 201 185 158 152 171 174 176 184 206 226
54 54 60 58 60 68 12 329 317 295 248 217 216 200 156 122 106 97 96 83 84 95 100 97 93 89 84 81 78 74 71 65 63 57 49 43 43 42 43 41 47 48 55 54 38 48 349 351 260 253 228 301 302 295 297 306 289 280 268 238 251 256 278 273 275 262 264 258 250 225 216 216 217 207 216 216 218 210 187 185 174 170 166 147 168
66 68 70 66 70 64 53 52 55 67 78 121 131 125 128 120 124 116 119 111 101 93 97 94 91 90 84 79 74 67 56 56 53 46 40 41 41 45 46 43 42 45 48 52 52 41 24 7 329 329 320 301 303 304 307 307 299 281 282 274 249 240 239 266 276 281 278 281 282 266 245 236 229 227 218 222 224 224 228 213 202 212 201 175 158
60 61 61 57 72 60 50 52 64 72 89 95 107 116 122 123 119 114 108 96 93 97 102 96 89 87 83 74 67 60 61 62 58 52 48 45 41 45 46 46 49 43 39 40 41 39 33 26 11 341 343 315 292 290 293 297 307 291 252 258 257 255 247 247 258 263 269 271 279 280 271 252 246 243 236 231 226 232 235 236 231 231 240 230 208
54 54 56 45 59 63 47 55 69 71 78 83 93 102 102 109 103 108 107 110 103 96 95 93 85 74 78 77 68 63 65 64 58 56 54 54 45 45 44 44 46 43 33 32 36 31 24 26 14 5 12 346 328 272 276 291 291 287 292 275 264 240 247 242 233 255 247 233 267 271 273 279 268 261 251 236 234 231 236 235 248 250 248 243 240
44 40 50 42 49 50 41 45 67 85 91 112 113 112 105 108 110 115 122 115 100 97 104 96 82 67 67 59 70 45 36 36 40 46 46 45 45 44 41 40 39 39 31 30 32 30 23 14 3 357 3 351 338 328 302 265 254 278 289 289 278 266 251 247 246 235 263 249 226 235 264 273 274 272 265 251 253 243 237 239 239 243 254 248 241
23 29 39 39 41 46 38 26 52 70 86 82 91 99 100 100 106 108 105 98 100 84 70 85 103 93 69 56 50 48 34 35 32 28 34 33 33 35 33 34 33 30 25 25 27 26 22 9 5 8 346 337 354 349 323 305 301 292 295 286 284 277 259 258 254 240 229 245 258 237 223 269 271 263 258 268 266 258 254 248 245 249 247 253 249
18 23 27 28 18 29 41 17 21 63 75 44 47 61 87 84 49 36 52 96 100 78 51 60 76 76 76 56 54 50 43 37 35 33 30 29 28 29 28 30 29 28 22 19 20 21 21 18 4 0 360 355 355 351 343 344 335 326 299 296 283 275 267 264 271 270 251 242 245 268 274 246 256 235 256 263 256 257 257 249 249 247 249 255 257
11 12 12 20 15 12 11 346 325 347 313 335 314 294 281 277 272 273 306 320 6 48 66 43 53 54 50 45 52 54 50 32 20 21 28 26 27 23 20 22 24 23 21 16 17 15 11 10 8 2 358 3 358 6 2 353 342 330 323 304 291 267 257 258 251 250 269 263 235 235 231 268 260 256 251 256 260 258 255 257 257 254 252 252 258
357 353 356 1 4 351 349 341 330 318 311 288 287 283 276 262 256 277 291 301 309 328 349 354 17 19 39 35 20 27 35 39 41 11 29 24 17 11 16 12 15 7 8 7 5 4 1 2 0 355 355 358 358 0 1 1 355 346 338 315 301 306 301 285 264 249 240 238 254 253 257 236 244 259 256 248 248 237 251 257 256 254 249 249 253